TimeCST,TemperatureF,Dew PointF,Humidity,Sea Level PressureIn,VisibilityMPH,Wind Direction,Wind SpeedMPH,Gust SpeedMPH,PrecipitationIn,Events,Conditions,WindDirDegrees,DateUTC
12:53 AM,34.0,26.1,73,30.41,10.0,NE,4.6,-,N/A,,Clear,40,2012-11-14 06:53:00
1:53 AM,33.1,26.1,75,30.42,10.0,North,6.9,-,N/A,,Clear,360,2012-11-14 07:53:00
2:53 AM,34.0,27.0,75,30.41,10.0,NE,3.5,-,N/A,,Clear,50,2012-11-14 08:53:00
3:53 AM,35.1,28.0,76,30.41,10.0,NNE,4.6,-,N/A,,Clear,20,2012-11-14 09:53:00
4:53 AM,35.1,28.0,76,30.41,10.0,ENE,3.5,-,N/A,,Clear,60,2012-11-14 10:53:00
5:53 AM,33.1,27.0,78,30.42,10.0,NNE,5.8,-,N/A,,Clear,20,2012-11-14 11:53:00
6:53 AM,33.1,27.0,78,30.42,10.0,NE,4.6,-,N/A,,Clear,40,2012-11-14 12:53:00
7:53 AM,37.0,28.9,73,30.43,10.0,NNE,6.9,-,N/A,,Clear,30,2012-11-14 13:53:00
8:53 AM,39.0,28.0,65,30.43,10.0,ENE,4.6,-,N/A,,Clear,60,2012-11-14 14:53:00
9:53 AM,42.1,30.9,65,30.43,10.0,ENE,6.9,-,N/A,,Clear,60,2012-11-14 15:53:00
10:53 AM,45.0,30.9,58,30.40,10.0,North,3.5,-,N/A,,Clear,350,2012-11-14 16:53:00
11:53 AM,45.0,30.9,58,30.39,10.0,NW,8.1,-,N/A,,Clear,320,2012-11-14 17:53:00
12:53 PM,46.9,33.1,59,30.36,10.0,North,6.9,-,N/A,,Clear,350,2012-11-14 18:53:00
1:53 PM,50.0,34.0,54,30.33,10.0,NE,6.9,-,N/A,,Clear,40,2012-11-14 19:53:00
2:53 PM,48.9,33.1,54,30.33,10.0,North,8.1,-,N/A,,Clear,360,2012-11-14 20:53:00
3:53 PM,50.0,33.1,52,30.34,10.0,North,8.1,-,N/A,,Clear,360,2012-11-14 21:53:00
4:53 PM,46.0,33.1,61,30.33,10.0,North,6.9,-,N/A,,Clear,10,2012-11-14 22:53:00
5:53 PM,43.0,34.0,71,30.34,10.0,NNW,4.6,-,N/A,,Clear,340,2012-11-14 23:53:00
6:53 PM,39.9,33.1,77,30.35,10.0,NNW,4.6,-,N/A,,Clear,340,2012-11-15 00:53:00
7:53 PM,39.0,32.0,76,30.35,10.0,North,3.5,-,N/A,,Clear,10,2012-11-15 01:53:00
8:53 PM,37.0,30.9,79,30.35,10.0,Calm,Calm,-,N/A,,Clear,0,2012-11-15 02:53:00
9:53 PM,34.0,30.9,89,30.34,10.0,Calm,Calm,-,N/A,,Clear,0,2012-11-15 03:53:00
10:53 PM,34.0,30.0,85,30.33,10.0,Calm,Calm,-,N/A,,Clear,0,2012-11-15 04:53:00
11:53 PM,32.0,30.0,92,30.32,10.0,Calm,Calm,-,N/A,,Clear,0,2012-11-15 05:53:00